TIME,DELAY(SENSOR),PRES,OXYGEN,RAWTEMP,T(OPTODE),TCPHASE,FLUOR,BETA(BETA700),BETA(BETA412),BETA(BETA440),CDOM,C(CSC),ED(ED412.40),ED(ED444.00),ED(ED489.70),ED(ED554.30),LU(LU411.80),LU(LU443.40),LU(LU489.60),LU(LU554.10),COMP,TILTX,TILTY,CHECK
1344656693,5807,860.7600097656250000,43.9071083068847660,660.5502929687500000,4.6098542213439940,54.4259300231933600,53,102,86,80,82,15352,2147760109,2147423469,2148007012,2147875657,2147639780,2147061586,2148256585,2147194203,2803,5,13,14592
1344660289,5809,943.9500122070312000,49.2929801940918000,670.4395751953125000,4.2836718559265140,53.7757911682128900,52,98,86,79,83,15352,2147757897,2147420854,2148009005,2147874203,2147642340,2147062016,2148256576,2147198829,134,4,13,28529
1344663889,5813,972.3900146484375000,49.3567504882812500,673.1301269531250000,4.1947441101074220,53.8017387390136700,53,98,88,79,81,15352,2147757961,2147422857,2148006674,2147877376,2147642880,2147060370,2148260269,2147197796,3316,5,13,38669
1344667489,5807,986.0900268554688000,48.8350410461425800,671.7337036132812000,4.2409100532531740,53.8564414978027340,53,98,88,80,82,15351,2147758957,2147422564,2148007433,2147874240,2147644123,2147060470,2148256018,2147196452,265,5,13,52410
1344671089,5808,984.2800292968750000,48.9129791259765600,671.9766235351562000,4.2328801155090330,53.8455581665039060,53,99,88,79,80,15353,2147759954,2147424320,2148007168,2147874240,2147643483,2147063122,2148257005,2147197723,543,5,13,62466
1344674689,5810,986.4600219726562000,48.6304512023925800,673.2125854492188000,4.1920170783996580,53.9029197692871100,52,99,85,79,82,15352,2147756809,2147421997,2148010486,2147873737,2147642651,2147062052,2148259437,2147196470,3302,4,13,29213
1344678289,5806,980.3900146484375000,48.7626190185546900,673.5640258789062000,4.1803932189941410,53.8872413635253900,52,99,89,79,80,15355,2147760018,2147422793,2148008832,2147875812,2147643529,2147055460,2148256475,2147199195,3340,5,13,17544
1344681889,5811,988.6300048828125000,48.9392700195312500,673.3574829101562000,4.1872220039367680,53.8569297790527340,52,98,88,79,82,15352,2147759140,2147420909,2148005750,2147872210,2147643574,2147061778,2148257225,2147198683,3433,4,13,21918
1344685489,5809,988.9899902343750000,48.5154991149902340,673.4285888671875000,4.1848697662353520,53.9220008850097660,53,100,87,79,82,15353,2147755620,2147425270,2148007908,2147876324,2147645101,2147061193,2148261613,2147196571,3143,5,13,62020
1344689089,5809,998.7899780273438000,48.2662200927734400,672.0922851562500000,4.2290549278259280,53.9369697570800800,53,99,89,81,81,15347,2147760429,2147420809,2148007195,2147874962,2147644598,2147057819,2148259977,2147200512,65,5,13,43291
1344692689,5809,996.7999877929688000,48.2128410339355500,672.3422851562500000,4.2207927703857420,53.9497108459472660,52,98,88,78,82,15349,2147760448,2147422281,2148008201,2147874340,2147644068,2147061833,2148257682,2147195419,3567,4,13,10073
1344696289,5811,988.8099975585938000,48.0499496459960940,673.5593261718750000,4.1805500984191895,53.9840393066406250,52,99,87,80,82,15349,2147757632,2147421312,2148005019,2147875785,2147643556,2147054957,2148256740,2147195382,3371,5,13,17636
1344699889,5808,996.8200073242188000,49.3193893432617200,673.8762207031250000,4.1700649261474610,53.8160514831543000,51,97,88,79,82,15347,2147758939,2147421266,2148006564,2147878912,2147641782,2147061293,2148259812,2147195684,6,5,13,47386
1344703489,5810,996.8499755859375000,49.1898803710937500,674.0048828125000000,4.1658082008361820,53.8303489685058600,53,98,92,80,81,15343,2147755684,2147422198,2148006436,2147874624,2147642925,2147060489,2148258048,2147200054,283,5,13,6870
1344707089,5810,998.0300292968750000,49.1898689270019500,673.6165161132812000,4.1786589622497560,53.8290405273437500,53,98,89,79,82,15309,2147758052,2147420525,2148006893,2147873453,2147644224,2147059008,2148260854,2147195474,177,4,13,21261
1344710689,5806,989.1599731445312000,48.9306602478027340,673.7561035156250000,4.1740398406982420,53.8682098388671900,53,100,90,80,82,15301,2147760228,2147421549,2148007533,2147873088,2147643072,2147060114,2148256896,2147197449,227,5,13,17606
1344714289,5809,995.0000000000000000,49.4300804138183600,674.2918701171875000,4.1563148498535160,53.8009109497070300,53,97,85,79,82,15301,2147757714,2147424557,2148008877,2147873581,2147640786,2147062976,2148253138,2147198610,3090,4,13,17462
1344717889,5809,998.6300048828125000,49.6067504882812500,674.6948242187500000,4.1429858207702640,53.7841491699218750,52,99,90,79,81,15297,2147761197,2147419538,2148007515,2147873206,2147643730,2147066020,2148260653,2147196260,92,5,13,44301
1344721489,5810,998.8499755859375000,49.8603096008300800,674.7191772460938000,4.1421780586242680,53.7504310607910160,52,99,86,80,81,15299,2147757046,2147422418,2148007442,2147877138,2147645860,2147063862,2148263177,2147197659,1349,5,13,24272
1344725089,5810,1006.7800292968750000,49.2179183959960940,673.6699829101562000,4.1768860816955570,53.8249092102050800,52,99,86,78,81,15300,2147759634,2147422610,2148008292,2147873682,2147645430,2147061513,2148264594,2147196534,368,4,13,18443
1344728689,5809,1004.1400146484375000,48.5219917297363300,673.2755737304688000,4.1899318695068360,53.9175682067871100,52,98,89,78,82,15298,2147756498,2147421065,2148007021,2147875117,2147643474,2147058020,2148257627,2147196973,516,5,13,61686
1344732289,5806,1001.4799804687500000,48.5092201232910160,673.7147827148438000,4.1754040718078610,53.9238586425781250,54,97,88,80,83,15298,2147759542,2147420507,2148003620,2147876004,2147644370,2147060672,2148260928,2147195510,119,5,13,21998
1344735889,5805,995.0999755859375000,48.9874496459960940,674.4113769531250000,4.1523609161376950,53.8644714355468750,53,98,87,79,83,15294,2147758592,2147423542,2148005769,2147872758,2147644516,2147066752,2148264640,2147198701,3383,4,13,15812
1344739489,5808,999.5499877929688000,48.8133697509765600,676.0562133789062000,4.0979290008544920,53.9126205444335940,53,99,91,79,80,15296,2147757622,2147420278,2148007396,2147873572,2147641892,2147060635,2148259894,2147198418,3292,4,13,6468
1344743089,5810,1000.2100219726562000,48.8086204528808600,674.4769897460938000,4.1501917839050290,53.8926200866699200,53,104,89,79,82,15292,2147759606,2147425517,2148008192,2147874377,2147643419,2147055570,2148259328,2147197458,79,5,13,9933
1344746689,5809,994.4299926757812000,48.3997383117675800,675.5390014648438000,4.1150488853454590,53.9594306945800800,53,101,87,79,81,15188,2147758902,2147420544,2148004928,2147874157,2147643803,2147055360,2148260013,2147196461,164,5,13,949
1344750289,5808,998.0399780273438000,49.0972404479980500,675.7855224609375000,4.1068902015686035,53.8647804260253900,53,98,85,80,82,15194,2147760941,2147421339,2148006390,2147872118,2147640073,2147055881,2148256137,2147197814,384,5,13,5441
1344753889,5808,998.2800292968750000,48.7632293701171900,674.6389770507812000,4.1448330879211430,53.9035301208496100,52,99,89,78,82,15167,2147758006,2147421705,2148008246,2147873828,2147642057,2147054189,2148264448,2147202422,3581,5,13,36417
1344757489,5810,998.9799804687500000,48.4223899841308600,675.7490844726562000,4.1080927848815920,53.9586601257324200,53,99,87,79,82,15167,2147757641,2147419675,2148006244,2147870875,2147641883,2147060891,2148260114,2147198107,3285,5,13,43180
1344761089,5809,1009.5399780273438000,49.1324691772460940,674.2738037109375000,4.1569142341613770,53.8450889587402340,53,98,91,79,81,15167,2147757385,2147420717,2148006491,2147876361,2147642514,2147069467,2148258870,2147201261,188,4,13,58190
1344764689,5808,1009.4500122070312000,48.2004394531250000,673.4421997070312000,4.1844220161437990,53.9645614624023440,52,107,87,78,81,15164,2147757586,2147420653,2148007314,2147874816,2147644882,2147060178,2148258496,2147199286,465,5,13,61513
1344768289,5811,1004.2199707031250000,48.2635002136230500,673.4022216796875000,4.1857447624206540,53.9548187255859400,52,98,92,80,81,15164,2147759277,2147421046,2148006948,2147877595,2147641874,2147063040,2148252982,2147198098,454,4,13,17982
1344771889,5809,994.9000244140625000,49.0344314575195300,674.2955932617188000,4.1561927795410160,53.8602714538574200,52,101,87,79,82,15117,2147759296,2147420233,2148005257,2147876873,2147643245,2147063213,2148257974,2147200274,3131,5,13,42340
1344775489,5806,1001.7000122070312000,49.0395507812500000,674.6563110351562000,4.1442580223083500,53.8659095764160160,52,98,86,79,82,15102,2147759177,2147420608,2148006326,2147874688,2147647250,2147063643,2148265380,2147201334,56,5,13,64213
1344779089,5808,1008.5100097656250000,49.2519111633300800,674.2722778320312000,4.1569628715515140,53.8231697082519500,52,97,89,79,82,15101,2147758637,2147420763,2148007003,2147875437,2147644105,2147061083,2148258834,2147200804,3010,4,13,6273
1344782689,5807,1002.5000000000000000,48.9930000305175800,674.2811889648438000,4.1566700935363770,53.8640899658203100,52,98,89,78,82,15101,2147759076,2147421156,2148007433,2147873371,2147644635,2147063149,2148261677,2147202953,3211,4,13,33247
1344786289,5810,1002.3699951171875000,49.0395011901855500,675.4619750976562000,4.1175980567932130,53.8720512390136700,52,98,89,79,82,15089,2147759881,2147421961,2148006372,2147874404,2147645046,2147056923,2148261421,2147195529,259,5,13,27402
1344789889,5807,1008.6500244140625000,48.1653518676757800,675.4572143554688000,4.1177577972412110,53.9963111877441400,53,98,89,79,82,15100,2147755995,2147418422,2148007058,2147874148,2147642898,2147057526,2148259702,2147197650,320,5,13,30537
1344793489,5808,1003.6699829101562000,48.7446708679199200,674.5056762695312000,4.1492400169372560,53.8981590270996100,53,97,85,80,81,15142,2147758884,2147421741,2148005558,2147874112,2147644891,2147058770,2148260452,2147196516,3536,4,13,47406
1344797089,5812,1001.1300048828125000,49.0641708374023440,675.8624267578125000,4.1043448448181150,53.8728599548339840,52,97,90,81,82,15066,2147761453,2147420425,2148006793,2147875785,2147644489,2147064164,2148255104,2147197970,5,4,13,51638
1344800689,5808,1002.0200195312500000,48.7392082214355500,676.1046752929688000,4.0963249206542970,53.9227790832519500,52,100,90,79,82,15066,2147758738,2147422546,2148007552,2147874203,2147645074,2147067318,2148258221,2147198363,260,5,13,4263
1344801055,5808,1004.4400024414062000,48.4503211975097660,676.0836791992188000,4.0970168113708500,53.9614105224609400,52,98,89,77,81,15343,2147761097,2147423643,2148006464,2147875702,2147644361,2147062902,2148257792,2147201600,230,4,13,61970
